User: anonymous   Login
Location: Little Chesterford
(52.0500°N, 0.1833°E)
Time: 22:37:10
(UTC+00:00)
Language:

Okean 3 - Orbit

View from above orbital plane
View from above orbital plane
View from above satellite
View from above satellite

Ground track
Ground track

The orbit data is extracted from the following two-line orbital elements,

1 21397U 91039A   24055.26295976  .00003994  00000-0  34167-3 0  9995
2 21397  82.5238 334.1109 0016043 340.3924  19.6680 14.97281759753347
Epoch (UTC): 24 February 2024 06:18:39
Eccentricity: 0.0016043
inclination: 82.5238°
perigee height: 564 km
apogee height: 586 km
right ascension of ascending node: 334.1109°
argument of perigee: 340.3924°
revolutions per day: 14.97281759
mean anomaly at epoch: 19.6680°
orbit number at epoch: 75334

The dashed part of the orbit path shows where the satellite is in the earth's shadow,  

DLR